Location: Gisborne
(38.6530°S, 178.0040°E)
Time: 03:29:30
(UTC+13:00)

Cosmos 1271 Rocket - Pass Details

Date: 24 January 2019
Orbit: 498 x 547 km, 81.2° (Epoch: 18 February)

Event Time Altitude Azimuth Distance (km) Brightness Sun altitude
Rises 20:58:45 0° 188° (S) 2,740 7.0 -5.9°
Reaches altitude 10° 21:00:56 10° 186° (S) 1,844 6.1 -6.2°
Maximum altitude 21:05:00 79° 99° (E) 571 2.8 -6.9°
Drops below altitude 10° 21:09:02 10° 12° (NNE) 1,826 5.1 -7.6°
Enters shadow 21:11:11 - 10° (N) 2,706 5.9 -7.9°
